Wind_Speed
15 15 16 15 15 14 15 14 13 13 12 11 11 11 10 10 9 9 9 9 8 8 8 8 7 7 6 6 5 4 4 4 4 4 4 4 4 5 5 5 5 5 5
16 16 17 17 16 16 15 15 14 14 13 12 12 12 11 11 10 10 9 9 9 9 9 8 8 8 7 6 5 5 4 4 4 3 3 3 3 3 3 4 4 4 4
18 18 18 18 18 17 17 16 16 15 15 14 13 13 12 12 11 10 10 10 10 10 9 9 8 8 8 7 6 6 5 4 3 3 3 2 2 2 2 2 2 3 3
21 20 20 20 20 19 18 18 17 16 16 16 15 14 14 13 12 12 11 10 10 10 10 9 9 9 8 8 7 6 6 5 4 3 3 2 2 1 1 0 1 1 1
23 22 22 22 21 21 20 20 19 18 17 17 17 16 15 14 14 13 12 11 11 11 10 10 10 10 9 9 8 7 6 6 6 5 4 3 2 1 1 1 2 2 2
24 24 24 24 23 22 22 21 20 20 19 18 18 18 16 16 15 14 13 13 12 12 11 11 11 10 10 10 9 8 7 7 7 7 6 5 4 3 3 3 3 3 3
26 25 25 25 25 24 24 23 22 21 21 20 20 19 18 17 17 16 15 14 14 13 12 12 12 11 11 11 10 9 8 8 8 8 7 7 6 5 5 4 5 4 4
27 27 26 26 26 26 25 25 24 23 22 22 21 21 20 19 18 17 17 16 15 14 13 13 12 12 12 12 11 11 10 9 10 9 8 8 8 7 7 6 6 6 6
29 28 28 27 27 27 27 26 26 25 24 24 23 23 22 21 20 19 19 18 17 16 15 15 14 14 13 13 13 12 12 11 11 11 10 10 9 9 9 8 8 8 8
30 29 29 28 28 28 28 28 27 26 26 25 24 24 23 23 22 21 20 20 19 18 17 16 16 16 15 14 14 13 13 13 13 12 12 11 11 11 11 10 10 10 10
32 31 31 30 29 29 29 29 29 28 27 27 26 25 25 24 24 23 22 22 21 20 19 18 18 17 16 16 16 15 15 15 14 14 14 13 13 13 13 13 12 12 12
33 32 32 32 31 31 30 30 30 30 29 28 27 27 26 26 25 24 24 23 23 22 21 20 20 19 18 18 17 17 17 17 16 16 16 16 15 15 15 15 15 15 15
35 34 33 33 33 32 31 31 32 31 31 30 29 29 28 27 26 26 25 25 24 24 23 22 22 21 20 20 19 18 18 18 17 17 17 17 17 17 17 17 18 17 17
37 36 35 35 34 34 33 33 33 33 32 31 31 31 30 28 28 27 27 26 25 25 25 24 24 23 23 22 21 20 19 19 19 18 18 18 18 19 19 19 19 19 19
39 38 37 36 36 35 35 34 34 34 33 32 32 31 31 30 29 29 28 28 27 26 26 25 25 24 24 23 22 22 21 20 20 20 20 20 20 19 20 20 20 20 21
40 40 39 38 38 37 36 36 35 35 35 34 33 32 32 32 31 30 30 29 28 27 27 26 26 25 25 25 24 23 23 22 21 21 21 21 21 20 20 20 21 21 22
41 41 41 41 40 39 38 37 37 36 36 35 34 34 33 33 32 32 31 31 30 29 28 27 27 26 26 25 25 24 24 23 23 23 22 22 22 22 22 21 21 22 22
43 43 42 42 42 41 40 39 38 37 37 37 36 35 34 34 33 33 32 31 31 30 29 29 28 27 26 26 25 25 25 25 24 24 24 23 23 23 23 23 23 23 23
45 44 44 44 43 43 42 41 40 39 38 38 37 37 35 34 34 34 33 32 32 31 31 30 29 29 28 27 26 26 26 26 25 25 25 25 25 25 25 24 24 24 25
47 47 46 45 45 44 44 42 41 40 39 39 38 37 37 36 35 35 34 33 33 32 32 31 31 30 29 28 28 28 28 28 27 27 27 27 27 27 27 26 26 26 26
49 49 47 46 47 46 45 44 42 41 40 39 39 37 37 37 36 36 36 35 34 33 33 33 33 32 31 30 29 29 29 29 29 28 28 28 28 28 28 28 28 28 28
51 50 49 48 47 47 46 45 44 43 42 41 40 39 38 37 37 37 37 36 35 34 34 34 34 33 32 32 31 31 30 30 30 29 29 29 29 29 28 28 29 29 29
51 52 51 51 50 49 48 46 45 44 43 42 41 40 39 39 37 36 36 37 36 36 35 35 35 34 33 33 33 32 31 30 30 30 29 29 29 29 29 29 29 29 29
52 52 52 52 52 51 50 48 47 45 44 42 42 42 41 40 40 38 37 38 38 37 36 36 35 35 34 34 33 33 32 32 31 31 30 29 29 29 29 30 30 30 30
53 53 53 53 53 52 52 50 49 47 45 44 44 43 42 41 40 39 38 38 38 38 37 37 36 36 35 35 34 33 33 32 32 32 31 31 30 30 30 30 30 31 31
52 53 53 53 53 53 53 53 51 49 47 46 45 44 43 42 41 40 39 39 39 38 38 37 37 36 36 36 35 34 34 33 33 33 33 32 32 32 32 32 32 32 33
Wind_Direction
230 230 228 228 228 228 226 225 223 221 215 212 210 206 205 205 203 200 199 198 194 190 187 188 188 182 176 171 164 159 153 146 140 128 114 106 100 95 91 87 84 83 79
232 231 229 230 230 230 229 227 224 222 218 216 214 212 211 211 211 208 204 201 199 197 196 195 196 195 191 186 181 177 169 163 156 151 141 122 111 106 97 87 82 82 77
234 233 231 231 231 230 229 228 226 224 222 220 219 217 214 213 214 214 211 208 204 204 204 205 204 202 202 201 197 193 187 181 174 170 167 157 138 126 109 93 82 77 70
236 235 233 232 231 230 229 229 229 226 224 223 222 221 219 218 218 218 217 215 212 210 211 213 213 211 208 208 207 204 202 201 199 195 191 184 175 165 134 73 43 47 41
237 236 234 233 231 230 230 230 231 229 227 225 223 223 223 222 223 222 220 219 216 215 216 218 219 219 216 213 212 211 212 215 215 213 211 211 210 219 244 276 301 307 315
237 236 235 234 232 231 230 231 231 230 229 228 226 225 226 225 224 224 223 222 221 221 222 222 222 223 222 220 217 218 218 220 222 221 224 228 234 246 257 265 277 288 292
237 236 236 234 233 232 231 231 231 231 230 229 228 228 228 227 226 226 226 225 226 225 225 224 223 223 223 222 223 226 228 228 229 229 233 239 246 252 256 262 272 278 286
238 237 236 235 234 234 233 233 232 231 230 230 229 230 230 229 228 228 229 229 229 228 229 228 225 225 226 226 229 233 236 239 237 237 239 246 253 256 257 263 270 276 281
239 238 237 236 235 235 234 233 233 233 232 232 232 232 232 232 231 232 232 232 232 232 232 232 231 231 231 232 235 239 241 243 241 241 245 250 256 259 261 265 269 274 279
239 238 238 237 237 236 235 234 234 234 234 234 234 234 233 234 234 234 234 234 234 234 234 236 237 237 238 239 242 244 245 246 243 244 247 251 257 261 264 266 268 272 277
240 239 239 238 237 237 236 235 234 234 234 235 236 236 235 235 235 236 236 236 237 237 237 238 240 242 242 245 246 248 248 249 247 248 251 255 258 262 265 267 269 272 276
240 240 239 238 237 237 236 236 235 234 235 236 237 237 236 237 237 237 238 238 239 240 241 241 242 244 246 248 249 249 249 251 253 252 254 257 259 262 265 269 271 274 277
239 239 239 237 237 237 236 236 236 235 235 237 237 238 237 238 238 239 240 241 241 242 243 243 243 246 248 250 253 252 252 252 254 257 257 257 259 262 265 269 272 273 275
239 239 239 238 237 237 237 236 236 236 236 236 237 238 238 238 239 239 240 241 242 243 244 245 246 247 248 250 252 254 254 255 257 258 260 261 261 263 265 267 269 271 273
238 238 239 238 237 237 238 238 237 236 236 236 236 237 237 238 239 240 240 242 243 244 245 246 247 249 249 250 251 253 255 256 258 260 262 262 262 264 266 268 269 271 273
237 238 238 237 237 237 238 239 239 237 236 236 237 238 238 238 239 240 241 242 243 245 246 246 247 248 249 250 250 252 255 257 260 262 262 262 263 265 267 268 270 272 274
237 237 238 237 236 236 237 238 239 238 236 236 237 238 239 239 240 240 241 242 243 244 245 247 248 249 249 250 251 252 255 258 260 261 263 263 263 264 266 270 271 273 275
236 236 237 237 236 236 236 237 237 238 237 238 238 238 239 239 240 241 242 242 243 245 245 246 247 249 250 251 251 253 255 258 260 261 261 262 263 265 268 271 273 274 275
235 235 236 236 236 235 235 236 237 237 237 238 239 239 239 240 241 242 242 243 245 245 246 247 248 249 251 252 253 253 255 258 260 262 262 262 263 265 268 271 274 275 276
234 234 235 235 235 234 234 235 236 237 237 238 239 240 240 240 242 243 243 245 244 245 246 248 248 250 251 252 253 254 255 258 260 261 262 263 265 267 269 271 272 275 277
235 234 234 234 235 235 235 235 235 237 237 238 239 240 240 241 242 244 244 244 244 244 245 246 247 249 251 252 253 254 256 258 260 261 262 264 265 267 269 271 272 274 276
236 236 235 235 234 235 235 235 235 236 237 237 238 239 241 242 242 243 244 244 244 243 244 246 247 248 250 252 254 255 257 258 260 261 263 265 266 267 269 270 272 273 275
237 237 236 236 236 235 236 236 236 236 237 238 239 240 241 242 243 244 245 244 243 244 245 246 248 249 251 252 254 256 257 258 260 261 262 264 266 268 269 271 272 273 274
237 237 237 236 236 236 236 236 236 236 237 239 240 241 241 242 243 245 246 244 243 244 244 246 247 249 250 252 253 255 256 257 260 261 262 264 267 269 270 272 273 274 274
237 237 236 236 236 236 237 236 236 237 237 237 239 240 241 242 243 244 244 244 243 244 245 246 247 249 250 251 252 254 256 258 259 261 263 264 267 269 270 272 274 275 275
237 237 236 236 236 236 237 237 237 237 237 237 239 240 241 242 243 243 244 244 243 244 245 246 248 249 250 251 252 253 256 258 259 261 263 264 267 269 271 273 274 275 276
Height
5840 5841 5843 5844 5846 5847 5849 5851 5852 5853 5854 5856 5857 5858 5859 5860 5861 5862 5863 5864 5865 5866 5867 5868 5869 5870 5871 5872 5872 5873 5874 5874 5875 5876 5876 5877 5877 5877 5877 5877 5878 5878 5878
5837 5839 5840 5842 5844 5846 5847 5849 5850 5852 5853 5855 5856 5857 5858 5860 5861 5862 5863 5864 5865 5866 5867 5868 5869 5870 5871 5872 5873 5873 5874 5875 5875 5876 5877 5877 5877 5878 5878 5878 5878 5878 5878
5835 5836 5838 5840 5842 5843 5845 5847 5849 5850 5852 5853 5855 5856 5857 5859 5860 5861 5862 5863 5864 5865 5866 5868 5868 5869 5870 5872 5872 5873 5874 5875 5875 5876 5877 5877 5878 5878 5878 5879 5879 5879 5879
5832 5833 5835 5837 5839 5841 5843 5845 5846 5848 5850 5851 5853 5855 5856 5857 5859 5860 5861 5862 5863 5864 5866 5867 5868 5869 5870 5871 5872 5873 5874 5875 5875 5876 5877 5877 5878 5878 5878 5879 5879 5879 5879
5828 5830 5832 5834 5836 5838 5840 5842 5844 5846 5847 5849 5851 5853 5854 5856 5857 5859 5860 5861 5862 5863 5865 5866 5867 5868 5869 5870 5871 5872 5873 5874 5875 5876 5876 5877 5877 5878 5878 5879 5879 5879 5879
5824 5827 5829 5830 5833 5835 5837 5839 5841 5843 5845 5847 5849 5851 5852 5854 5856 5857 5858 5860 5861 5862 5863 5864 5866 5867 5868 5869 5870 5871 5872 5873 5874 5875 5876 5876 5877 5877 5878 5878 5878 5879 5879
5820 5823 5825 5827 5829 5831 5834 5836 5838 5840 5842 5844 5846 5848 5850 5852 5853 5855 5856 5858 5859 5861 5862 5863 5864 5865 5867 5868 5869 5870 5871 5872 5873 5874 5875 5875 5876 5877 5877 5877 5878 5878 5878
5816 5818 5820 5823 5825 5827 5830 5832 5834 5837 5839 5841 5843 5845 5847 5849 5851 5853 5854 5856 5857 5859 5860 5861 5862 5864 5865 5866 5868 5869 5870 5871 5872 5873 5874 5874 5875 5875 5876 5876 5876 5877 5877
5811 5813 5816 5818 5821 5823 5826 5828 5831 5833 5835 5838 5840 5842 5844 5846 5848 5850 5852 5853 5855 5857 5858 5860 5861 5862 5863 5865 5866 5867 5868 5869 5870 5871 5872 5873 5873 5874 5874 5875 5875 5875 5875
5805 5808 5811 5814 5816 5819 5821 5824 5826 5829 5831 5834 5836 5838 5840 5843 5845 5847 5849 5851 5852 5854 5856 5857 5859 5860 5861 5862 5864 5865 5866 5867 5868 5869 5870 5871 5871 5872 5872 5873 5873 5873 5873
5800 5803 5806 5808 5811 5814 5816 5819 5822 5824 5827 5829 5832 5834 5837 5839 5841 5843 5845 5847 5849 5851 5853 5854 5856 5857 5859 5860 5861 5862 5864 5865 5866 5867 5868 5868 5869 5870 5870 5870 5871 5871 5871
5794 5797 5800 5803 5805 5808 5811 5814 5816 5819 5822 5825 5828 5830 5832 5835 5837 5839 5841 5843 5845 5847 5849 5851 5853 5854 5856 5857 5858 5860 5861 5862 5863 5864 5865 5866 5866 5867 5867 5868 5868 5868 5869
5787 5790 5793 5796 5799 5802 5805 5808 5811 5814 5817 5820 5823 5825 5828 5830 5833 5835 5837 5839 5841 5844 5845 5847 5849 5851 5852 5854 5855 5856 5858 5859 5860 5861 5862 5862 5863 5864 5864 5865 5865 5865 5865
5780 5783 5787 5790 5793 5796 5799 5802 5805 5808 5811 5814 5817 5820 5822 5825 5828 5830 5833 5835 5837 5839 5841 5843 5845 5847 5848 5850 5851 5853 5854 5855 5856 5857 5858 5859 5859 5860 5861 5861 5861 5862 5862
5773 5776 5779 5783 5786 5789 5792 5795 5799 5802 5805 5808 5811 5814 5816 5819 5822 5825 5828 5830 5832 5834 5836 5838 5840 5842 5844 5845 5847 5848 5850 5851 5852 5853 5854 5855 5855 5856 5857 5857 5857 5858 5858
5764 5768 5771 5775 5778 5782 5785 5789 5792 5795 5798 5802 5805 5808 5811 5813 5816 5819 5822 5824 5827 5829 5831 5833 5835 5837 5839 5841 5843 5844 5845 5846 5848 5849 5850 5850 5851 5852 5852 5853 5853 5853 5853
5756 5759 5763 5767 5770 5774 5777 5781 5784 5788 5791 5795 5798 5801 5804 5807 5810 5813 5816 5819 5821 5823 5826 5828 5830 5832 5834 5836 5838 5839 5841 5842 5843 5844 5845 5846 5847 5847 5848 5848 5849 5849 5849
5747 5750 5754 5758 5762 5766 5770 5773 5777 5780 5784 5788 5791 5794 5797 5800 5803 5807 5810 5813 5815 5817 5820 5822 5824 5827 5828 5830 5832 5834 5836 5837 5838 5839 5840 5841 5842 5842 5843 5843 5844 5844 5844
5737 5741 5744 5748 5753 5757 5761 5765 5769 5772 5776 5780 5783 5787 5790 5793 5796 5799 5803 5806 5809 5811 5814 5816 5819 5821 5823 5825 5827 5828 5830 5831 5833 5834 5835 5836 5836 5837 5838 5838 5838 5839 5839
5726 5731 5735 5739 5743 5748 5752 5756 5760 5764 5768 5772 5776 5779 5783 5786 5789 5792 5796 5799 5801 5804 5807 5810 5812 5814 5817 5819 5821 5822 5824 5826 5827 5828 5829 5830 5831 5831 5832 5832 5833 5833 5833
5715 5720 5725 5729 5734 5738 5743 5747 5752 5756 5760 5764 5768 5771 5775 5779 5782 5785 5788 5791 5794 5797 5800 5803 5805 5808 5810 5812 5814 5816 5818 5819 5821 5822 5823 5823 5824 5825 5826 5826 5827 5827 5827
5704 5709 5714 5719 5724 5729 5733 5738 5743 5747 5751 5755 5759 5763 5767 5771 5774 5777 5780 5784 5787 5790 5793 5795 5798 5800 5803 5805 5807 5809 5811 5813 5814 5815 5816 5817 5818 5818 5819 5820 5820 5820 5821
5692 5698 5703 5708 5713 5718 5723 5728 5733 5737 5742 5747 5751 5755 5758 5762 5765 5768 5772 5775 5779 5782 5785 5787 5790 5793 5795 5798 5800 5802 5804 5806 5807 5808 5809 5810 5811 5812 5812 5813 5813 5813 5813
5681 5686 5691 5697 5702 5708 5713 5718 5723 5728 5733 5738 5742 5746 5749 5753 5757 5760 5763 5767 5770 5773 5776 5779 5782 5785 5787 5790 5792 5794 5796 5798 5800 5801 5803 5803 5804 5805 5805 5806 5806 5806 5806
5669 5674 5680 5685 5691 5697 5702 5707 5713 5718 5724 5728 5732 5736 5740 5744 5748 5751 5755 5758 5762 5765 5768 5771 5774 5777 5779 5782 5784 5786 5788 5790 5792 5794 5795 5796 5797 5798 5798 5798 5798 5799 5799
5657 5662 5668 5673 5679 5685 5691 5696 5702 5708 5713 5718 5722 5726 5731 5735 5739 5743 5746 5750 5753 5756 5760 5763 5766 5768 5771 5774 5776 5778 5780 5782 5784 5786 5787 5788 5789 5790 5790 5790 5791 5791 5791